Wind_Speed
34 33 33 32 32 31 31 31 30 29 29 30 31 31 31 30 30 30 30 30 30 29 30 31 32 33 33 33 33 33 34 34 35 35 35 34 34 35
35 35 34 33 33 33 32 32 32 31 30 30 31 31 32 31 30 30 31 32 31 30 29 30 31 31 32 33 33 33 34 35 35 36 36 36 36 36
37 36 36 35 34 34 33 33 33 33 31 29 30 31 31 31 31 31 30 31 31 30 30 30 29 30 31 32 32 32 33 34 34 35 36 37 37 36
38 37 37 36 35 34 34 33 33 33 31 29 29 30 31 31 31 31 30 30 29 30 29 29 29 30 31 31 31 32 33 34 33 34 35 36 36 36
39 38 38 37 36 35 34 33 32 32 31 29 28 29 29 30 30 30 30 29 30 29 28 29 29 30 30 30 30 30 31 32 32 33 33 34 34 35
40 39 39 38 37 36 35 34 32 31 30 29 28 28 27 28 28 29 29 28 28 28 28 28 28 29 28 28 29 29 30 31 32 32 32 32 33 34
42 41 40 39 37 37 35 34 32 31 30 29 28 27 27 27 27 28 28 28 28 28 28 28 28 28 28 28 29 30 30 30 30 31 31 32 32 33
43 42 40 38 37 36 35 34 32 30 29 28 28 27 27 27 27 27 27 28 28 28 28 28 28 28 28 28 28 29 29 29 29 30 30 31 32 32
45 42 40 38 37 35 34 33 31 30 29 28 27 26 26 26 26 26 26 26 26 26 26 28 28 27 27 27 27 27 27 27 26 27 27 27 27 27
45 43 40 38 36 35 33 32 30 29 28 28 26 25 25 25 25 25 25 25 25 25 25 24 25 26 26 24 23 23 22 22 23 23 22 22 22 22
44 42 40 37 36 34 32 30 28 27 26 25 23 24 24 23 23 23 23 23 22 23 23 23 24 24 23 22 21 21 21 20 20 20 19 20 20 21
43 41 39 36 34 32 30 28 26 25 25 24 22 22 23 22 22 22 22 21 20 21 21 21 21 22 21 21 20 20 19 18 17 17 17 18 19 20
40 39 37 35 32 31 28 26 25 24 23 22 22 21 20 20 20 19 19 20 20 20 19 18 18 19 19 18 17 16 14 14 15 15 16 17 19 20
37 36 35 33 31 29 27 24 23 22 21 20 19 18 18 18 19 19 19 19 20 20 18 17 17 17 16 15 15 14 14 13 13 14 15 17 19 20
34 34 33 31 29 27 24 22 20 19 18 18 18 18 19 18 19 19 18 18 20 19 18 17 16 15 14 14 13 13 12 12 13 14 15 17 18 20
30 31 30 29 28 25 23 21 19 18 17 18 18 18 17 18 18 18 18 17 17 16 15 15 14 14 13 12 12 12 12 13 14 15 16 18 20 22
29 29 29 27 26 24 23 22 21 20 19 18 17 17 17 18 18 17 16 15 15 15 15 14 13 13 12 12 12 13 13 14 16 17 18 19 21 23
30 30 28 26 25 24 24 23 21 20 19 18 17 17 17 18 18 17 16 16 15 15 14 13 12 12 12 13 13 14 15 16 18 19 20 21 22 24
29 28 26 25 25 24 23 22 22 21 19 18 18 17 17 17 17 16 15 15 14 13 12 12 12 13 14 14 15 17 17 18 19 20 21 22 23 25
27 26 25 24 24 23 23 23 22 21 20 19 18 17 16 16 16 15 14 13 13 12 12 12 13 14 15 16 17 18 19 20 21 22 23 24 25 26
27 26 26 24 24 24 23 23 22 22 20 19 18 17 16 15 14 14 13 12 12 12 12 13 14 15 16 18 19 20 21 22 23 24 24 25 26 28
27 27 26 25 24 24 24 23 23 22 20 19 17 16 15 15 14 13 12 12 12 12 13 14 15 16 17 19 20 21 23 24 24 25 26 27 28 30
28 27 26 25 24 24 24 23 22 20 19 17 16 15 14 14 13 12 12 12 12 13 14 15 16 18 19 20 22 23 24 25 26 27 28 29 30 31
Wind_Direction
278 281 284 287 289 291 290 289 287 281 276 272 269 267 264 260 255 251 248 246 243 243 246 246 243 243 244 244 245 243 242 242 243 243 245 245 245 245
275 277 281 284 286 288 288 287 286 282 277 273 270 266 264 259 253 252 250 247 245 243 245 246 246 244 244 245 246 245 245 244 245 245 245 245 246 246
272 275 277 281 283 284 286 286 284 282 278 273 268 265 263 259 254 250 249 247 246 245 245 245 245 245 247 245 246 246 246 247 247 246 245 245 246 246
271 273 275 277 280 283 285 284 282 280 278 273 269 265 261 258 255 251 248 246 246 246 246 246 245 245 247 248 248 246 247 249 249 248 248 247 248 248
269 270 272 275 277 280 282 282 280 278 277 273 268 265 260 255 254 251 250 247 246 246 246 247 247 247 249 248 247 249 248 248 249 250 251 251 251 251
267 268 270 272 274 277 279 280 279 277 274 271 267 263 258 254 252 250 249 247 245 246 246 248 249 248 247 248 248 249 250 251 252 251 251 253 254 254
265 266 267 269 271 274 276 277 277 274 272 268 265 261 256 254 252 249 248 247 247 247 247 247 247 247 248 250 248 251 252 251 253 254 254 254 255 255
263 263 264 266 268 271 273 274 274 272 269 266 262 258 254 252 250 248 247 246 246 245 246 245 246 248 248 248 250 252 252 252 254 255 256 256 256 257
259 260 261 263 265 267 270 271 271 269 266 264 260 255 252 251 248 246 245 244 245 246 246 245 244 244 247 249 251 253 252 252 254 254 254 253 254 255
255 256 257 259 261 264 268 268 267 265 263 261 256 251 249 247 245 244 243 242 244 244 244 244 243 243 243 244 248 250 251 250 249 248 249 249 252 255
250 251 253 254 257 260 264 264 261 260 259 256 251 248 245 243 241 240 240 240 240 241 240 241 241 237 237 240 243 245 249 249 248 248 249 252 254 257
245 246 248 249 252 255 258 258 255 254 253 251 248 244 241 239 237 236 236 234 234 236 235 235 234 233 235 238 242 244 243 241 244 248 251 257 261 267
238 241 241 243 247 250 253 252 250 248 249 246 241 238 236 231 229 229 226 225 226 227 226 226 228 229 232 234 235 236 238 240 244 250 258 265 270 272
231 234 236 238 242 243 245 245 244 242 240 236 230 227 226 225 220 215 215 218 219 221 221 222 223 224 225 228 232 236 239 242 248 256 263 269 275 278
222 225 226 231 233 234 234 234 231 229 226 222 221 221 220 219 218 217 218 218 219 218 215 215 218 220 223 228 232 234 238 244 252 261 268 274 280 284
214 217 219 222 223 223 222 220 217 215 214 214 217 214 212 211 210 210 211 211 209 205 204 206 212 217 219 223 228 236 245 254 261 268 274 279 285 289
209 208 210 211 211 212 213 212 213 213 211 209 209 210 211 207 203 203 202 201 203 205 207 210 214 217 220 227 235 244 253 261 268 275 280 285 289 292
206 202 202 203 203 203 202 204 205 204 203 201 200 200 199 198 198 199 199 202 204 204 206 211 216 223 232 241 250 257 263 269 275 280 285 288 291 295
197 194 194 196 196 196 196 197 196 193 191 189 187 187 189 190 192 194 195 197 199 203 211 220 228 236 245 253 259 264 269 274 278 282 286 290 294 297
187 186 187 189 187 188 188 188 186 183 181 180 181 182 184 187 189 192 195 199 206 213 222 232 240 247 254 260 265 270 274 278 281 285 288 292 296 299
178 179 180 179 178 179 179 179 179 178 178 179 180 182 184 187 192 197 202 208 216 226 236 245 253 259 265 269 272 275 277 280 282 286 289 292 296 300
175 176 176 175 175 175 175 175 175 174 175 178 181 186 191 196 201 207 214 223 232 241 250 257 262 267 272 275 277 279 281 283 285 287 289 292 296 299
172 173 172 171 171 171 172 172 174 176 179 182 187 193 199 206 213 220 229 239 248 254 260 265 270 274 277 280 281 282 283 285 286 288 290 293 297 299
Height
5761 5761 5760 5759 5758 5756 5755 5754 5754 5754 5755 5754 5755 5756 5757 5759 5761 5763 5766 5769 5771 5775 5778 5782 5785 5789 5792 5796 5798 5801 5805 5808 5811 5814 5817 5820 5823 5825
5752 5752 5751 5750 5749 5748 5747 5746 5745 5745 5746 5747 5747 5747 5748 5750 5752 5755 5758 5761 5764 5767 5771 5774 5777 5781 5784 5787 5790 5793 5796 5799 5802 5805 5808 5811 5814 5817
5742 5742 5742 5741 5741 5740 5739 5738 5737 5736 5737 5738 5738 5739 5739 5741 5743 5746 5749 5753 5756 5759 5763 5766 5769 5773 5776 5779 5782 5785 5788 5791 5794 5797 5800 5803 5806 5809
5732 5732 5732 5732 5731 5731 5729 5728 5728 5727 5727 5728 5729 5730 5731 5733 5735 5738 5741 5744 5748 5751 5755 5758 5762 5765 5768 5771 5774 5777 5780 5783 5786 5789 5791 5794 5797 5800
5721 5721 5722 5722 5722 5721 5720 5719 5719 5718 5718 5719 5720 5721 5722 5724 5727 5729 5732 5736 5740 5743 5747 5750 5754 5757 5760 5763 5766 5769 5772 5775 5778 5780 5783 5786 5788 5791
5709 5710 5711 5711 5712 5712 5711 5711 5710 5710 5710 5711 5712 5713 5714 5716 5719 5722 5725 5729 5732 5736 5739 5743 5746 5749 5752 5756 5759 5761 5764 5767 5769 5772 5774 5777 5780 5782
5697 5698 5700 5701 5701 5702 5702 5702 5702 5702 5702 5703 5704 5705 5707 5709 5712 5715 5718 5721 5725 5728 5732 5736 5739 5742 5745 5748 5751 5753 5756 5758 5761 5763 5766 5768 5770 5772
5684 5686 5688 5690 5691 5692 5693 5693 5693 5694 5695 5696 5696 5698 5700 5702 5705 5708 5711 5715 5718 5721 5724 5728 5732 5735 5738 5741 5743 5745 5748 5750 5753 5755 5757 5759 5761 5763
5671 5674 5677 5679 5681 5682 5683 5684 5685 5685 5687 5688 5689 5691 5693 5695 5698 5701 5704 5708 5711 5714 5717 5720 5724 5727 5730 5732 5735 5738 5740 5742 5744 5746 5748 5750 5752 5754
5658 5662 5665 5668 5670 5672 5674 5675 5676 5677 5679 5680 5682 5684 5686 5688 5692 5695 5698 5701 5704 5707 5710 5713 5716 5719 5722 5725 5728 5731 5733 5735 5737 5739 5741 5743 5745 5747
5644 5649 5653 5657 5660 5663 5664 5666 5668 5670 5671 5673 5675 5677 5679 5682 5685 5689 5692 5695 5697 5700 5704 5707 5710 5713 5716 5719 5722 5724 5727 5729 5731 5733 5734 5736 5738 5739
5630 5637 5642 5647 5650 5653 5656 5658 5660 5662 5664 5666 5668 5671 5673 5676 5679 5683 5687 5690 5692 5695 5698 5702 5704 5708 5711 5713 5716 5718 5721 5723 5725 5727 5729 5730 5731 5732
5618 5625 5631 5636 5641 5645 5648 5650 5653 5655 5658 5660 5663 5665 5668 5671 5675 5678 5681 5685 5688 5692 5695 5697 5700 5703 5706 5709 5711 5714 5716 5718 5720 5721 5723 5724 5725 5725
5606 5614 5621 5627 5632 5636 5640 5644 5647 5649 5652 5655 5658 5661 5664 5667 5671 5674 5678 5681 5684 5688 5691 5694 5697 5700 5702 5705 5707 5710 5711 5713 5715 5716 5717 5718 5718 5717
5596 5604 5611 5618 5624 5629 5633 5637 5641 5644 5647 5651 5654 5657 5661 5664 5667 5671 5674 5678 5681 5684 5687 5690 5693 5696 5698 5701 5704 5706 5707 5709 5710 5711 5712 5712 5711 5710
5588 5596 5603 5610 5617 5622 5628 5632 5636 5640 5644 5648 5651 5655 5658 5661 5664 5668 5671 5674 5678 5681 5684 5687 5690 5693 5695 5698 5700 5702 5703 5704 5705 5705 5705 5705 5704 5702
5582 5590 5598 5605 5611 5617 5623 5628 5632 5637 5641 5645 5648 5652 5655 5658 5662 5665 5669 5672 5676 5679 5682 5685 5688 5690 5692 5694 5696 5697 5698 5699 5699 5699 5699 5698 5696 5695
5577 5585 5593 5600 5607 5613 5619 5624 5629 5634 5638 5642 5646 5649 5653 5657 5660 5664 5667 5671 5674 5677 5680 5682 5685 5687 5689 5691 5692 5693 5693 5694 5693 5693 5692 5691 5689 5687
5574 5581 5589 5596 5603 5609 5615 5621 5626 5631 5635 5640 5644 5648 5652 5655 5659 5662 5666 5669 5672 5675 5677 5680 5682 5684 5685 5686 5687 5688 5688 5687 5687 5686 5684 5683 5681 5678
5572 5579 5587 5594 5600 5607 5613 5619 5624 5629 5634 5638 5643 5647 5651 5655 5658 5661 5664 5667 5670 5672 5675 5677 5678 5679 5681 5682 5682 5682 5681 5681 5680 5678 5677 5675 5672 5670
5572 5579 5586 5593 5599 5605 5612 5618 5623 5628 5633 5638 5642 5646 5650 5654 5657 5660 5663 5665 5668 5670 5672 5673 5674 5675 5675 5676 5676 5675 5674 5673 5672 5670 5669 5667 5664 5661
5572 5579 5586 5593 5599 5606 5612 5618 5623 5628 5633 5637 5642 5646 5649 5653 5656 5658 5661 5663 5665 5666 5667 5668 5669 5669 5670 5670 5669 5668 5667 5665 5664 5662 5660 5658 5655 5652
5573 5580 5587 5594 5600 5606 5612 5618 5624 5628 5633 5637 5641 5645 5648 5651 5654 5656 5658 5659 5661 5662 5663 5664 5664 5664 5663 5663 5662 5661 5659 5658 5656 5654 5652 5649 5646 5643